START_TIME,STEP,MOV.,H8,t_acc.,H43,t_acc.,M25,t_acc.,H9,t_acc.
1979-07-05 09:00:30.250 ,0,0,0.,12.0,0.,12.0,0.,12.0,0.,12.0
1979-07-05 09:00:42.250 ,0,0,0.,12.0,0.,12.0,0.,12.0,0.,12.0
1979-07-05 09:00:54.250 ,0,0,0.,12.0,0.,12.0,0.,12.0,0.,12.0
1979-07-05 09:01:06.250 ,0,0,0.,12.0,0.,12.0,0.,12.0,0.,12.0
1979-07-05 09:01:18.250 ,0,0,0.,12.0,0.,12.0,0.,12.0,0.,12.0
1979-07-05 09:01:30.250 ,0,0,0.,12.0,0.,12.0,0.,12.0,0.,12.0
1979-07-05 09:01:42.250 ,1,0,0.,12.0,0.,12.0,0.,12.0,0.,12.0
1979-07-05 09:01:54.250 ,1,0,0.,12.0,0.,12.0,0.,12.0,0.,12.0
1979-07-05 09:02:06.250 ,1,0,0.,12.0,0.,12.0,0.,12.0,0.,12.0
1979-07-05 09:02:18.250 ,1,0,0.,12.0,0.,12.0,0.,12.0,0.,12.0
1979-07-05 09:02:30.250 ,2,0,0.,12.0,0.,12.0,0.,12.0,0.,12.0
1979-07-05 09:02:42.250 ,2,0,0.,12.0,0.,12.0,0.,12.0,0.,12.0
1979-07-05 09:02:54.250 ,2,0,0.,12.0,0.,12.0,0.,12.0,0.,12.0
1979-07-05 09:03:06.250 ,2,0,0.,12.0,0.,12.0,0.,12.0,0.,12.0
1979-07-05 09:03:18.250 ,3,0,0.,12.0,0.,12.0,0.,12.0,0.,12.0
1979-07-05 09:03:30.250 ,3,0,0.,12.0,0.,12.0,0.,12.0,0.,12.0
1979-07-05 09:03:42.250 ,3,0,0.,12.0,0.,12.0,0.,12.0,0.,12.0
1979-07-05 09:03:54.250 ,3,0,0.,12.0,0.,12.0,0.,12.0,0.,12.0
1979-07-05 09:04:06.250 ,4,0,0.,12.0,0.,12.0,0.,12.0,0.,12.0
1979-07-05 09:04:18.250 ,4,0,0.,12.0,0.,12.0,0.,12.0,0.,12.0
1979-07-05 09:04:30.250 ,4,0,0.,12.0,0.,12.0,0.,12.0,0.,12.0
1979-07-05 09:04:42.250 ,4,0,0.,12.0,0.,12.0,0.,12.0,0.,12.0
1979-07-05 09:04:54.250 ,5,0,0.,12.0,0.,12.0,0.,12.0,0.,12.0
1979-07-05 09:05:06.250 ,5,0,0.,12.0,0.,12.0,0.,12.0,0.,12.0
1979-07-05 09:05:18.250 ,5,0,0.,12.0,0.,12.0,0.,12.0,0.,12.0
1979-07-05 09:05:30.250 ,5,0,0.,12.0,0.,12.0,0.,12.0,0.,12.0
1979-07-05 09:05:42.250 ,6,0,0.,12.0,0.,12.0,0.,12.0,0.,12.0
1979-07-05 09:05:54.250 ,6,0,0.,12.0,0.,12.0,0.,12.0,0.,12.0
1979-07-05 09:06:06.250 ,6,0,0.,12.0,0.,12.0,0.,12.0,0.,12.0
1979-07-05 09:06:18.250 ,6,0,0.,12.0,0.,12.0,0.,12.0,0.,12.0
1979-07-05 09:06:30.250 ,7,0,0.,12.0,0.,12.0,0.,12.0,0.,12.0
1979-07-05 09:06:42.250 ,7,0,0.,12.0,0.,12.0,0.,12.0,0.,12.0
1979-07-05 09:06:54.250 ,7,0,0.,12.0,0.,12.0,0.,12.0,0.,12.0
1979-07-05 09:07:06.250 ,7,0,0.,12.0,0.,12.0,0.,12.0,0.,12.0
1979-07-05 09:07:18.250 ,3,1,0.,12.0,0.,12.0,0.,12.0,0.,12.0
1979-07-05 09:07:30.250 ,3,1,0.,12.0,0.,12.0,0.,12.0,0.,12.0
1979-07-05 09:07:42.250 ,0,1,0.,12.0,0.,12.0,0.,12.0,0.,12.0
1979-07-05 09:07:54.250 ,0,1,0.,12.0,0.,12.0,0.,12.0,0.,12.0
1979-07-05 09:08:06.250 ,4,1,0.,12.0,0.,12.0,0.,12.0,0.,12.0
1979-07-05 09:08:18.250 ,4,1,0.,12.0,0.,12.0,0.,12.0,0.,12.0
1979-07-05 09:08:30.250 ,7,1,0.,12.0,0.,12.0,0.,12.0,0.,12.0
1979-07-05 09:08:42.250 ,7,1,0.,12.0,0.,12.0,0.,12.0,0.,12.0
1979-07-05 09:08:54.250 ,3,1,0.,12.0,0.,12.0,0.,12.0,0.,12.0
1979-07-05 09:09:06.250 ,3,1,0.,12.0,0.,12.0,0.,12.0,0.,12.0
1979-07-05 09:09:18.250 ,0,1,0.,12.0,0.,12.0,0.,12.0,0.,12.0
1979-07-05 09:09:30.250 ,0,1,0.,12.0,0.,12.0,0.,12.0,0.,12.0
1979-07-05 09:09:42.250 ,4,1,0.,12.0,0.,12.0,0.,12.0,0.,12.0
1979-07-05 09:09:54.250 ,4,1,0.,12.0,0.,12.0,0.,12.0,0.,12.0
1979-07-05 09:10:06.250 ,7,1,0.,12.0,0.,12.0,0.,12.0,0.,12.0
1979-07-05 09:10:18.250 ,7,1,0.,12.0,0.,12.0,0.,12.0,0.,12.0
1979-07-05 09:10:30.250 ,3,1,0.,12.0,0.,12.0,0.,12.0,0.,12.0
1979-07-05 09:10:42.250 ,3,1,0.,12.0,0.,12.0,0.,12.0,0.,12.0
1979-07-05 09:10:54.250 ,0,1,0.,12.0,0.,12.0,0.,12.0,0.,12.0
1979-07-05 09:11:06.250 ,0,1,0.,12.0,0.,12.0,0.,12.0,0.,12.0
1979-07-05 09:11:18.250 ,4,1,0.,12.0,0.,12.0,0.,12.0,0.,12.0
1979-07-05 09:11:30.250 ,4,1,0.,12.0,0.,12.0,0.,12.0,0.,12.0
1979-07-05 09:11:42.250 ,0,0,0.,12.0,0.,12.0,0.,12.0,0.,12.0
1979-07-05 09:11:54.250 ,0,0,0.,12.0,0.,12.0,0.,12.0,0.,12.0
1979-07-05 09:12:06.250 ,3,1,0.,12.0,0.,12.0,0.,12.0,0.,12.0
1979-07-05 09:12:18.250 ,3,1,0.,12.0,0.,12.0,0.,12.0,0.,12.0
1979-07-05 09:12:30.250 ,0,1,0.,12.0,0.,12.0,0.,12.0,0.,12.0
1979-07-05 09:12:42.250 ,0,1,0.,12.0,0.,12.0,0.,12.0,0.,12.0
1979-07-05 09:12:54.250 ,4,1,0.,12.0,0.,12.0,0.,12.0,0.,12.0
1979-07-05 09:13:06.250 ,4,1,0.,12.0,0.,12.0,0.,12.0,0.,12.0
1979-07-05 09:13:18.250 ,7,1,0.,12.0,0.,12.0,0.,12.0,0.,12.0
1979-07-05 09:13:30.250 ,7,1,0.,12.0,0.,12.0,0.,12.0,0.,12.0
1979-07-05 09:13:42.250 ,3,1,0.,12.0,0.,12.0,0.,12.0,0.,12.0
1979-07-05 09:13:54.250 ,3,1,0.,12.0,0.,12.0,0.,12.0,0.,12.0
1979-07-05 09:14:06.250 ,0,1,0.,12.0,0.,12.0,0.,12.0,0.,12.0
1979-07-05 09:14:18.250 ,0,1,0.,12.0,0.,12.0,0.,12.0,0.,12.0
1979-07-05 09:14:30.250 ,4,1,0.,12.0,0.,12.0,0.,12.0,0.,12.0
1979-07-05 09:14:42.250 ,4,1,0.,12.0,0.,12.0,0.,12.0,0.,12.0
1979-07-05 09:14:54.250 ,7,1,0.,12.0,0.,12.0,0.,12.0,0.,12.0
1979-07-05 09:15:06.250 ,7,1,0.,12.0,0.,12.0,0.,12.0,0.,12.0
1979-07-05 09:15:18.250 ,3,1,0.,12.0,0.,12.0,0.,12.0,0.,12.0
1979-07-05 09:15:30.250 ,3,1,0.,12.0,0.,12.0,0.,12.0,0.,12.0
1979-07-05 09:15:42.250 ,0,1,0.,12.0,0.,12.0,0.,12.0,0.,12.0
1979-07-05 09:15:54.250 ,0,1,0.,12.0,0.,12.0,0.,12.0,0.,12.0
1979-07-05 09:16:06.250 ,4,1,0.,12.0,0.,12.0,0.,12.0,0.,12.0
1979-07-05 09:16:18.250 ,4,1,0.,12.0,0.,12.0,0.,12.0,0.,12.0
1979-07-05 09:16:30.250 ,7,1,0.,12.0,0.,12.0,0.,12.0,0.,12.0
1979-07-05 09:16:42.250 ,7,1,0.,12.0,0.,12.0,0.,12.0,0.,12.0
1979-07-05 09:16:54.250 ,3,1,0.,12.0,0.,12.0,0.,12.0,0.,12.0
1979-07-05 09:17:06.250 ,3,1,0.,12.0,0.,12.0,0.,12.0,0.,12.0
1979-07-05 09:17:18.250 ,0,1,0.,12.0,0.,12.0,0.,12.0,0.,12.0
1979-07-05 09:17:30.250 ,0,1,0.,12.0,0.,12.0,0.,12.0,0.,12.0
1979-07-05 09:17:42.250 ,0,0,0.,12.0,0.,12.0,0.,12.0,0.,12.0
1979-07-05 09:17:54.250 ,0,0,0.,12.0,0.,12.0,0.,12.0,0.,12.0
1979-07-05 09:18:06.250 ,0,0,0.,12.0,0.,12.0,0.,12.0,0.,12.0
1979-07-05 09:18:18.250 ,0,0,0.,12.0,0.,12.0,0.,12.0,0.,12.0
1979-07-05 09:18:30.250 ,5,0,0.,12.0,0.,12.0,0.,12.0,0.,12.0
1979-07-05 09:18:42.250 ,5,0,0.,12.0,0.,12.0,0.,12.0,0.,12.0
1979-07-05 09:18:54.250 ,5,0,0.,12.0,0.,12.0,0.,12.0,0.,12.0
1979-07-05 09:19:06.250 ,5,0,0.,12.0,0.,12.0,0.,12.0,0.,12.0
1979-07-05 09:19:18.250 ,4,0,0.,12.0,0.,12.0,0.,12.0,0.,12.0
1979-07-05 09:19:30.250 ,4,0,0.,12.0,0.,12.0,0.,12.0,0.,12.0
1979-07-05 09:19:42.250 ,4,0,0.,12.0,0.,12.0,0.,12.0,0.,12.0
1979-07-05 09:19:54.250 ,4,0,0.,12.0,0.,12.0,0.,12.0,0.,12.0
1979-07-05 09:20:06.250 ,3,0,0.,12.0,0.,12.0,0.,12.0,0.,12.0
1979-07-05 09:20:18.250 ,3,0,0.,12.0,0.,12.0,0.,12.0,0.,12.0
1979-07-05 09:20:30.250 ,3,0,0.,12.0,0.,12.0,0.,12.0,0.,12.0
1979-07-05 09:20:42.250 ,3,0,0.,12.0,0.,12.0,0.,12.0,0.,12.0
1979-07-05 09:20:54.250 ,2,0,0.,12.0,0.,12.0,0.,12.0,0.,12.0
1979-07-05 09:21:06.250 ,2,0,0.,12.0,0.,12.0,0.,12.0,0.,12.0
1979-07-05 09:21:18.250 ,2,0,0.,12.0,0.,12.0,0.,12.0,0.,12.0
1979-07-05 09:21:30.250 ,2,0,0.,12.0,0.,12.0,0.,12.0,0.,12.0
1979-07-05 09:21:42.250 ,1,0,0.,12.0,0.,12.0,0.,12.0,0.,12.0
1979-07-05 09:21:54.250 ,1,0,0.,12.0,0.,12.0,0.,12.0,0.,12.0
1979-07-05 09:22:06.250 ,1,0,0.,12.0,0.,12.0,0.,12.0,0.,12.0
1979-07-05 09:22:18.250 ,1,0,0.,12.0,0.,12.0,0.,12.0,0.,12.0
1979-07-05 09:22:30.250 ,0,0,0.,12.0,0.,12.0,0.,12.0,0.,12.0
1979-07-05 09:22:42.250 ,0,0,0.,12.0,0.,12.0,0.,12.0,0.,12.0
1979-07-05 09:22:54.250 ,0,0,0.,12.0,0.,12.0,0.,12.0,0.,12.0
1979-07-05 09:23:06.250 ,0,0,0.,12.0,0.,12.0,0.,12.0,0.,12.0
1979-07-05 09:23:18.250 ,0,0,0.,12.0,0.,12.0,0.,12.0,0.,12.0
1979-07-05 09:23:30.250 ,0,0,0.,12.0,0.,12.0,0.,12.0,0.,12.0
1979-07-05 09:23:42.250 ,0,0,0.,12.0,0.,12.0,0.,12.0,0.,12.0
1979-07-05 09:23:54.250 ,0,0,0.,12.0,0.,12.0,0.,12.0,0.,12.0
1979-07-05 09:24:06.250 ,1,0,0.,12.0,0.,12.0,0.,12.0,0.,12.0
1979-07-05 09:24:18.250 ,1,0,0.,12.0,0.,12.0,0.,12.0,0.,12.0
1979-07-05 09:24:30.250 ,1,0,0.,12.0,0.,12.0,0.,12.0,0.,12.0
1979-07-05 09:24:42.250 ,1,0,0.,12.0,0.,12.0,0.,12.0,0.,12.0
1979-07-05 09:24:54.250 ,2,0,0.,12.0,0.,12.0,0.,12.0,0.,12.0
1979-07-05 09:25:06.250 ,2,0,0.,12.0,0.,12.0,0.,12.0,0.,12.0
1979-07-05 09:25:18.250 ,2,0,0.,12.0,0.,12.0,0.,12.0,0.,12.0
1979-07-05 09:25:30.250 ,2,0,0.,12.0,0.,12.0,0.,12.0,0.,12.0
1979-07-05 09:25:42.250 ,3,0,0.,12.0,0.,12.0,0.,12.0,0.,12.0
1979-07-05 09:25:54.250 ,3,0,0.,12.0,0.,12.0,0.,12.0,0.,12.0
1979-07-05 09:26:06.250 ,3,0,0.,12.0,0.,12.0,0.,12.0,0.,12.0
1979-07-05 09:26:18.250 ,3,0,0.,12.0,0.,12.0,0.,12.0,0.,12.0
1979-07-05 09:26:30.250 ,4,0,0.,12.0,0.,12.0,0.,12.0,0.,12.0
1979-07-05 09:26:42.250 ,4,0,0.,12.0,0.,12.0,0.,12.0,0.,12.0
1979-07-05 09:26:54.250 ,4,0,0.,12.0,0.,12.0,0.,12.0,0.,12.0
1979-07-05 09:27:06.250 ,4,0,0.,12.0,0.,12.0,0.,12.0,0.,12.0
1979-07-05 09:27:18.250 ,5,0,0.,12.0,0.,12.0,0.,12.0,0.,12.0
1979-07-05 09:27:30.250 ,5,0,0.,12.0,0.,12.0,0.,12.0,0.,12.0
1979-07-05 09:27:42.250 ,5,0,0.,12.0,0.,12.0,0.,12.0,0.,12.0
1979-07-05 09:27:54.250 ,5,0,0.,12.0,0.,12.0,0.,12.0,0.,12.0
1979-07-05 09:28:06.250 ,6,0,0.,12.0,0.,12.0,0.,12.0,0.,12.0
1979-07-05 09:28:18.250 ,6,0,0.,12.0,0.,12.0,0.,12.0,0.,12.0
1979-07-05 09:28:30.250 ,6,0,0.,12.0,0.,12.0,0.,12.0,0.,12.0
1979-07-05 09:28:42.250 ,6,0,0.,12.0,0.,12.0,0.,12.0,0.,12.0
1979-07-05 09:28:54.250 ,7,0,0.,12.0,0.,12.0,0.,12.0,0.,12.0
1979-07-05 09:29:06.250 ,7,0,0.,12.0,0.,12.0,0.,12.0,0.,12.0
1979-07-05 09:29:18.250 ,7,0,0.,12.0,0.,12.0,0.,12.0,0.,12.0
1979-07-05 09:29:30.250 ,7,0,0.,12.0,0.,12.0,0.,12.0,0.,12.0
1979-07-05 09:29:42.250 ,7,0,0.,12.0,0.,12.0,0.,12.0,0.,12.0
1979-07-05 09:29:54.250 ,7,0,0.,12.0,0.,12.0,0.,12.0,0.,12.0
1979-07-05 09:30:06.250 ,7,0,0.,12.0,0.,12.0,0.,12.0,0.,12.0
1979-07-05 09:30:18.250 ,7,0,0.,12.0,0.,12.0,0.,12.0,0.,12.0
1979-07-05 09:30:30.250 ,6,0,0.,12.0,0.,12.0,0.,12.0,0.,12.0
1979-07-05 09:30:42.250 ,6,0,0.,12.0,0.,12.0,0.,12.0,0.,12.0
1979-07-05 09:30:54.250 ,6,0,0.,12.0,0.,12.0,0.,12.0,0.,12.0
1979-07-05 09:31:06.250 ,6,0,0.,12.0,0.,12.0,0.,12.0,0.,12.0
1979-07-05 09:31:18.250 ,5,0,0.,12.0,0.,12.0,0.,12.0,0.,12.0
1979-07-05 09:31:30.250 ,5,0,0.,12.0,0.,12.0,0.,12.0,0.,12.0
1979-07-05 09:31:42.250 ,5,0,0.,12.0,0.,12.0,0.,12.0,0.,12.0
1979-07-05 09:31:54.250 ,5,0,0.,12.0,0.,12.0,0.,12.0,0.,12.0
1979-07-05 09:32:06.250 ,4,0,0.,12.0,0.,12.0,0.,12.0,0.,12.0
1979-07-05 09:32:18.250 ,4,0,0.,12.0,0.,12.0,0.,12.0,0.,12.0
1979-07-05 09:32:30.250 ,4,0,0.,12.0,0.,12.0,0.,12.0,0.,12.0
1979-07-05 09:32:42.250 ,4,0,0.,12.0,0.,12.0,0.,12.0,0.,12.0
1979-07-05 09:32:54.240 ,3,0,0.,12.0,0.,12.0,0.,12.0,0.,12.0
1979-07-05 09:33:06.240 ,3,0,0.,12.0,0.,12.0,0.,12.0,0.,12.0
1979-07-05 09:33:18.240 ,3,0,0.,12.0,0.,12.0,0.,12.0,0.,12.0
1979-07-05 09:33:30.240 ,3,0,0.,12.0,0.,12.0,0.,12.0,0.,12.0
1979-07-05 09:33:42.240 ,2,0,0.,12.0,0.,12.0,0.,12.0,0.,12.0
1979-07-05 09:33:54.240 ,2,0,0.,12.0,0.,12.0,0.,12.0,0.,12.0
1979-07-05 09:34:06.240 ,2,0,0.,12.0,0.,12.0,0.,12.0,0.,12.0
1979-07-05 09:34:18.250 ,2,0,0.,12.0,0.,12.0,0.,12.0,0.,12.0
1979-07-05 09:34:30.250 ,1,0,0.,12.0,0.,12.0,0.,12.0,0.,12.0
1979-07-05 09:34:42.250 ,1,0,0.,12.0,0.,12.0,0.,12.0,0.,12.0
1979-07-05 09:34:54.250 ,1,0,0.,12.0,0.,12.0,0.,12.0,0.,12.0
1979-07-05 09:35:06.250 ,1,0,0.,12.0,0.,12.0,0.,12.0,0.,12.0
1979-07-05 09:35:18.250 ,0,0,0.,12.0,0.,12.0,0.,12.0,0.,12.0
1979-07-05 09:35:30.250 ,0,0,0.,12.0,0.,12.0,0.,12.0,0.,12.0
1979-07-05 09:35:42.250 ,0,0,0.,12.0,0.,12.0,0.,12.0,0.,12.0
1979-07-05 09:35:54.250 ,0,0,0.,12.0,0.,12.0,0.,12.0,0.,12.0
1979-07-05 09:36:06.250 ,0,0,0.,12.0,0.,12.0,0.,12.0,0.,12.0
1979-07-05 09:36:18.250 ,0,0,0.,12.0,0.,12.0,0.,12.0,0.,12.0
1979-07-05 09:36:30.250 ,0,0,0.,12.0,0.,12.0,0.,12.0,0.,12.0
1979-07-05 09:36:42.250 ,0,0,0.,12.0,0.,12.0,0.,12.0,0.,12.0
1979-07-05 09:36:54.250 ,1,0,0.,12.0,0.,12.0,0.,12.0,0.,12.0
1979-07-05 09:37:06.250 ,1,0,0.,12.0,0.,12.0,0.,12.0,0.,12.0
1979-07-05 09:37:18.250 ,1,0,0.,12.0,0.,12.0,0.,12.0,0.,12.0
1979-07-05 09:37:30.250 ,1,0,0.,12.0,0.,12.0,0.,12.0,0.,12.0
1979-07-05 09:37:42.250 ,2,0,0.,12.0,0.,12.0,0.,12.0,0.,12.0
1979-07-05 09:37:54.250 ,2,0,0.,12.0,0.,12.0,0.,12.0,0.,12.0
1979-07-05 09:38:06.250 ,2,0,0.,12.0,0.,12.0,0.,12.0,0.,12.0
1979-07-05 09:38:18.250 ,2,0,0.,12.0,0.,12.0,0.,12.0,0.,12.0
1979-07-05 09:38:30.250 ,3,0,0.,12.0,0.,12.0,0.,12.0,0.,12.0
1979-07-05 09:38:42.250 ,3,0,0.,12.0,0.,12.0,0.,12.0,0.,12.0
1979-07-05 09:38:54.250 ,3,0,0.,12.0,0.,12.0,0.,12.0,0.,12.0
1979-07-05 09:39:06.250 ,3,0,0.,12.0,0.,12.0,0.,12.0,0.,12.0
1979-07-05 09:39:18.250 ,4,0,0.,12.0,0.,12.0,0.,12.0,0.,12.0
1979-07-05 09:39:30.250 ,4,0,0.,12.0,0.,12.0,0.,12.0,0.,12.0
1979-07-05 09:39:42.250 ,4,0,0.,12.0,0.,12.0,0.,12.0,0.,12.0
1979-07-05 09:39:54.250 ,4,0,0.,12.0,0.,12.0,0.,12.0,0.,12.0
1979-07-05 09:40:06.250 ,5,0,0.,12.0,0.,12.0,0.,12.0,0.,12.0
1979-07-05 09:40:18.250 ,5,0,0.,12.0,0.,12.0,0.,12.0,0.,12.0
1979-07-05 09:40:30.250 ,5,0,0.,12.0,0.,12.0,0.,12.0,0.,12.0
1979-07-05 09:40:42.250 ,5,0,0.,12.0,0.,12.0,0.,12.0,0.,12.0
1979-07-05 09:40:54.250 ,6,0,0.,12.0,0.,12.0,0.,12.0,0.,12.0
1979-07-05 09:41:06.250 ,6,0,0.,12.0,0.,12.0,0.,12.0,0.,12.0
1979-07-05 09:41:18.250 ,6,0,0.,12.0,0.,12.0,0.,12.0,0.,12.0
1979-07-05 09:41:30.250 ,6,0,0.,12.0,0.,12.0,0.,12.0,0.,12.0
1979-07-05 09:41:42.250 ,7,0,0.,12.0,0.,12.0,0.,12.0,0.,12.0
1979-07-05 09:41:54.250 ,7,0,0.,12.0,0.,12.0,0.,12.0,0.,12.0
1979-07-05 09:42:06.250 ,7,0,0.,12.0,0.,12.0,0.,12.0,0.,12.0
1979-07-05 09:42:18.250 ,7,0,0.,12.0,0.,12.0,0.,12.0,0.,12.0
1979-07-05 09:42:30.250 ,7,0,0.,12.0,0.,12.0,0.,12.0,0.,12.0
1979-07-05 09:42:42.250 ,7,0,0.,12.0,0.,12.0,0.,12.0,0.,12.0
1979-07-05 09:42:54.250 ,7,0,0.,12.0,0.,12.0,0.,12.0,0.,12.0
1979-07-05 09:43:06.250 ,7,0,0.,12.0,0.,12.0,0.,12.0,0.,12.0
1979-07-05 09:43:18.250 ,6,0,0.,12.0,0.,12.0,0.,12.0,0.,12.0
1979-07-05 09:43:30.250 ,6,0,0.,12.0,0.,12.0,0.,12.0,0.,12.0
1979-07-05 09:43:42.250 ,6,0,0.,12.0,0.,12.0,0.,12.0,0.,12.0
1979-07-05 09:43:54.250 ,6,0,0.,12.0,0.,12.0,0.,12.0,0.,12.0
1979-07-05 09:44:06.250 ,5,0,0.,12.0,0.,12.0,0.,12.0,0.,12.0
1979-07-05 09:44:18.250 ,5,0,0.,12.0,0.,12.0,0.,12.0,0.,12.0
1979-07-05 09:44:30.250 ,5,0,0.,12.0,0.,12.0,0.,12.0,0.,12.0
1979-07-05 09:44:42.250 ,5,0,0.,12.0,0.,12.0,0.,12.0,0.,12.0
1979-07-05 09:44:54.250 ,4,0,0.,12.0,0.,12.0,0.,12.0,0.,12.0
1979-07-05 09:45:06.250 ,4,0,0.,12.0,0.,12.0,0.,12.0,0.,12.0
1979-07-05 09:45:18.250 ,4,0,0.,12.0,0.,12.0,0.,12.0,0.,12.0
1979-07-05 09:45:30.250 ,4,0,0.,12.0,0.,12.0,0.,12.0,0.,12.0
1979-07-05 09:45:42.250 ,3,0,0.,12.0,0.,12.0,0.,12.0,0.,12.0
1979-07-05 09:45:54.250 ,3,0,0.,12.0,0.,12.0,0.,12.0,0.,12.0
1979-07-05 09:46:06.250 ,3,0,0.,12.0,0.,12.0,0.,12.0,0.,12.0
1979-07-05 09:46:18.250 ,3,0,0.,12.0,0.,12.0,0.,12.0,0.,12.0
1979-07-05 09:46:30.250 ,2,0,0.,12.0,0.,12.0,0.,12.0,0.,12.0
1979-07-05 09:46:42.250 ,2,0,0.,12.0,0.,12.0,0.,12.0,0.,12.0
1979-07-05 09:46:54.250 ,2,0,0.,12.0,0.,12.0,0.,12.0,0.,12.0
1979-07-05 09:47:06.250 ,2,0,0.,12.0,0.,12.0,0.,12.0,0.,12.0
1979-07-05 09:47:18.250 ,1,0,0.,12.0,0.,12.0,0.,12.0,0.,12.0
1979-07-05 09:47:30.250 ,1,0,0.,12.0,0.,12.0,0.,12.0,0.,12.0
1979-07-05 09:47:42.250 ,1,0,0.,12.0,0.,12.0,0.,12.0,0.,12.0
1979-07-05 09:47:54.250 ,1,0,0.,12.0,0.,12.0,0.,12.0,0.,12.0
1979-07-05 09:48:06.250 ,0,0,0.,12.0,0.,12.0,0.,12.0,0.,12.0
1979-07-05 09:48:18.250 ,0,0,0.,12.0,0.,12.0,0.,12.0,0.,12.0
1979-07-05 09:48:30.250 ,0,0,0.,12.0,0.,12.0,0.,12.0,0.,12.0
1979-07-05 09:48:42.250 ,0,0,0.,12.0,0.,12.0,0.,12.0,0.,12.0
1979-07-05 09:48:54.250 ,0,0,0.,12.0,0.,12.0,0.,12.0,0.,12.0
1979-07-05 09:49:06.250 ,0,0,0.,12.0,0.,12.0,0.,12.0,0.,12.0
1979-07-05 09:49:18.250 ,0,0,0.,12.0,0.,12.0,0.,12.0,0.,12.0
1979-07-05 09:49:30.250 ,0,0,0.,12.0,0.,12.0,0.,12.0,0.,12.0
1979-07-05 09:49:42.250 ,1,0,0.,12.0,0.,12.0,0.,12.0,0.,12.0
1979-07-05 09:49:54.250 ,1,0,0.,12.0,0.,12.0,0.,12.0,0.,12.0
1979-07-05 09:50:06.250 ,1,0,0.,12.0,0.,12.0,0.,12.0,0.,12.0
1979-07-05 09:50:18.250 ,1,0,0.,12.0,0.,12.0,0.,12.0,0.,12.0
1979-07-05 09:50:30.250 ,2,0,0.,12.0,0.,12.0,0.,12.0,0.,12.0
1979-07-05 09:50:42.250 ,2,0,0.,12.0,0.,12.0,0.,12.0,0.,12.0
1979-07-05 09:50:54.250 ,2,0,0.,12.0,0.,12.0,0.,12.0,0.,12.0
1979-07-05 09:51:06.250 ,2,0,0.,12.0,0.,12.0,0.,12.0,0.,12.0
1979-07-05 09:51:18.250 ,3,0,0.,12.0,0.,12.0,0.,12.0,0.,12.0
1979-07-05 09:51:30.250 ,3,0,0.,12.0,0.,12.0,0.,12.0,0.,12.0
1979-07-05 09:51:42.250 ,3,0,0.,12.0,0.,12.0,0.,12.0,0.,12.0
1979-07-05 09:51:54.250 ,3,0,0.,12.0,0.,12.0,0.,12.0,0.,12.0
1979-07-05 09:52:06.250 ,4,0,0.,12.0,0.,12.0,0.,12.0,0.,12.0
1979-07-05 09:52:18.250 ,4,0,0.,12.0,0.,12.0,0.,12.0,0.,12.0
1979-07-05 09:52:30.250 ,4,0,0.,12.0,0.,12.0,0.,12.0,0.,12.0
1979-07-05 09:52:42.250 ,4,0,0.,12.0,0.,12.0,0.,12.0,0.,12.0
1979-07-05 09:52:54.250 ,5,0,0.,12.0,0.,12.0,0.,12.0,0.,12.0
1979-07-05 09:53:06.250 ,5,0,0.,12.0,0.,12.0,0.,12.0,0.,12.0
1979-07-05 09:53:18.250 ,5,0,0.,12.0,0.,12.0,0.,12.0,0.,12.0
1979-07-05 09:53:30.250 ,5,0,0.,12.0,0.,12.0,0.,12.0,0.,12.0
1979-07-05 09:53:42.250 ,6,0,0.,12.0,0.,12.0,0.,12.0,0.,12.0
1979-07-05 09:53:54.250 ,6,0,0.,12.0,0.,12.0,0.,12.0,0.,12.0
1979-07-05 09:54:06.250 ,6,0,0.,12.0,0.,12.0,0.,12.0,0.,12.0
1979-07-05 09:54:18.250 ,6,0,0.,12.0,0.,12.0,0.,12.0,0.,12.0
1979-07-05 09:54:30.250 ,7,0,0.,12.0,0.,12.0,0.,12.0,0.,12.0
1979-07-05 09:54:42.250 ,7,0,0.,12.0,0.,12.0,0.,12.0,0.,12.0
1979-07-05 09:54:54.250 ,7,0,0.,12.0,0.,12.0,0.,12.0,0.,12.0
1979-07-05 09:55:06.250 ,7,0,0.,12.0,0.,12.0,0.,12.0,0.,12.0
1979-07-05 09:55:18.240 ,3,1,0.,12.0,0.,12.0,0.,12.0,0.,12.0
1979-07-05 09:55:30.240 ,3,1,0.,12.0,0.,12.0,0.,12.0,0.,12.0
1979-07-05 09:55:42.240 ,0,1,0.,12.0,0.,12.0,0.,12.0,0.,12.0
1979-07-05 09:55:54.240 ,0,1,0.,12.0,0.,12.0,0.,12.0,0.,12.0
1979-07-05 09:56:06.240 ,4,1,0.,12.0,0.,12.0,0.,12.0,0.,12.0
1979-07-05 09:56:18.240 ,4,1,0.,12.0,0.,12.0,0.,12.0,0.,12.0
1979-07-05 09:56:30.240 ,7,1,0.,12.0,0.,12.0,0.,12.0,0.,12.0
1979-07-05 09:56:42.240 ,7,1,0.,12.0,0.,12.0,0.,12.0,0.,12.0
1979-07-05 09:56:54.240 ,3,1,0.,12.0,0.,12.0,0.,12.0,0.,12.0
1979-07-05 09:57:06.240 ,3,1,0.,12.0,0.,12.0,0.,12.0,0.,12.0
1979-07-05 09:57:18.240 ,0,1,0.,12.0,0.,12.0,0.,12.0,0.,12.0
1979-07-05 09:57:30.240 ,0,1,0.,12.0,0.,12.0,0.,12.0,0.,12.0
1979-07-05 09:57:42.240 ,4,1,0.,12.0,0.,12.0,0.,12.0,0.,12.0
1979-07-05 09:57:54.240 ,4,1,0.,12.0,0.,12.0,0.,12.0,0.,12.0
1979-07-05 09:58:06.240 ,7,1,0.,12.0,0.,12.0,0.,12.0,0.,12.0
1979-07-05 09:58:18.240 ,7,1,0.,12.0,0.,12.0,0.,12.0,0.,12.0
1979-07-05 09:58:30.240 ,3,1,0.,12.0,0.,12.0,0.,12.0,0.,12.0
1979-07-05 09:58:42.240 ,3,1,0.,12.0,0.,12.0,0.,12.0,0.,12.0
1979-07-05 09:58:54.240 ,0,1,0.,12.0,0.,12.0,0.,12.0,0.,12.0
1979-07-05 09:59:06.240 ,0,1,0.,12.0,0.,12.0,0.,12.0,0.,12.0
1979-07-05 09:59:18.240 ,4,1,0.,12.0,0.,12.0,0.,12.0,0.,12.0
1979-07-05 09:59:30.240 ,4,1,0.,12.0,0.,12.0,0.,12.0,0.,12.0
1979-07-05 09:59:42.240 ,7,1,0.,12.0,0.,12.0,0.,12.0,0.,12.0
1979-07-05 09:59:54.240 ,7,1,0.,12.0,0.,12.0,0.,12.0,0.,12.0
1979-07-05 10:00:06.240 ,3,1,0.,12.0,0.,12.0,0.,12.0,0.,12.0
1979-07-05 10:00:18.240 ,3,1,0.,12.0,0.,12.0,0.,12.0,0.,12.0
1979-07-05 10:00:30.240 ,0,1,0.,12.0,0.,12.0,0.,12.0,0.,12.0
1979-07-05 10:00:42.240 ,0,1,0.,12.0,0.,12.0,0.,12.0,0.,12.0
1979-07-05 10:00:54.240 ,4,1,0.,12.0,0.,12.0,0.,12.0,0.,12.0
1979-07-05 10:01:06.240 ,4,1,0.,12.0,0.,12.0,0.,12.0,0.,12.0
1979-07-05 10:01:18.240 ,7,1,0.,12.0,0.,12.0,0.,12.0,0.,12.0
1979-07-05 10:01:30.240 ,7,1,0.,12.0,0.,12.0,0.,12.0,0.,12.0
1979-07-05 10:01:42.240 ,3,1,0.,12.0,0.,12.0,0.,12.0,0.,12.0
1979-07-05 10:01:54.240 ,3,1,0.,12.0,0.,12.0,0.,12.0,0.,12.0
1979-07-05 10:02:06.240 ,0,1,0.,12.0,0.,12.0,0.,12.0,0.,12.0
1979-07-05 10:02:18.240 ,0,1,0.,12.0,0.,12.0,0.,12.0,0.,12.0
1979-07-05 10:02:30.240 ,4,1,0.,12.0,0.,12.0,0.,12.0,0.,12.0
1979-07-05 10:02:42.240 ,4,1,0.,12.0,0.,12.0,0.,12.0,0.,12.0
1979-07-05 10:02:54.240 ,7,1,0.,12.0,0.,12.0,0.,12.0,0.,12.0
1979-07-05 10:03:06.240 ,7,1,0.,12.0,0.,12.0,0.,12.0,0.,12.0
1979-07-05 10:03:18.240 ,3,1,0.,12.0,0.,12.0,0.,12.0,0.,12.0
1979-07-05 10:03:30.240 ,3,1,0.,12.0,0.,12.0,0.,12.0,0.,12.0
1979-07-05 10:03:42.240 ,0,1,0.,12.0,0.,12.0,0.,12.0,0.,12.0
1979-07-05 10:03:54.240 ,0,1,0.,12.0,0.,12.0,0.,12.0,0.,12.0
1979-07-05 10:04:06.240 ,4,1,0.,12.0,0.,12.0,0.,12.0,0.,12.0
1979-07-05 10:04:18.240 ,4,1,0.,12.0,0.,12.0,0.,12.0,0.,12.0
1979-07-05 10:04:30.240 ,7,1,0.,12.0,0.,12.0,0.,12.0,0.,12.0
1979-07-05 10:04:42.240 ,7,1,0.,12.0,0.,12.0,0.,12.0,0.,12.0
1979-07-05 10:04:54.240 ,3,1,0.,12.0,0.,12.0,0.,12.0,0.,12.0
1979-07-05 10:05:06.240 ,3,1,0.,12.0,0.,12.0,0.,12.0,0.,12.0
1979-07-05 10:05:18.240 ,0,1,0.,12.0,0.,12.0,0.,12.0,0.,12.0
1979-07-05 10:05:30.240 ,0,1,0.,12.0,0.,12.0,0.,12.0,0.,12.0
1979-07-05 10:05:42.240 ,0,0,0.,12.0,0.,12.0,0.,12.0,0.,12.0
1979-07-05 10:05:54.240 ,0,0,0.,12.0,0.,12.0,0.,12.0,0.,12.0
1979-07-05 10:06:06.240 ,0,0,0.,12.0,0.,12.0,0.,12.0,0.,12.0
1979-07-05 10:06:18.240 ,0,0,0.,12.0,0.,12.0,0.,12.0,0.,12.0
1979-07-05 10:06:30.240 ,5,0,0.,12.0,0.,12.0,0.,12.0,0.,12.0
1979-07-05 10:06:42.240 ,5,0,0.,12.0,0.,12.0,0.,12.0,0.,12.0
1979-07-05 10:06:54.240 ,5,0,0.,12.0,0.,12.0,0.,12.0,0.,12.0
1979-07-05 10:07:06.240 ,5,0,0.,12.0,0.,12.0,0.,12.0,0.,12.0
1979-07-05 10:07:18.240 ,4,0,0.,12.0,0.,12.0,0.,12.0,0.,12.0
1979-07-05 10:07:30.240 ,4,0,0.,12.0,0.,12.0,0.,12.0,0.,12.0
1979-07-05 10:07:42.240 ,4,0,0.,12.0,0.,12.0,0.,12.0,0.,12.0
1979-07-05 10:07:54.240 ,4,0,0.,12.0,0.,12.0,0.,12.0,0.,12.0
1979-07-05 10:08:06.240 ,3,0,0.,12.0,0.,12.0,0.,12.0,0.,12.0
1979-07-05 10:08:18.240 ,3,0,0.,12.0,0.,12.0,0.,12.0,0.,12.0
1979-07-05 10:08:30.240 ,3,0,0.,12.0,0.,12.0,0.,12.0,0.,12.0
1979-07-05 10:08:42.240 ,3,0,0.,12.0,0.,12.0,0.,12.0,0.,12.0
1979-07-05 10:08:54.240 ,2,0,0.,12.0,0.,12.0,0.,12.0,0.,12.0
1979-07-05 10:09:06.240 ,2,0,0.,12.0,0.,12.0,0.,12.0,0.,12.0
1979-07-05 10:09:18.240 ,2,0,0.,12.0,0.,12.0,0.,12.0,0.,12.0
1979-07-05 10:09:30.240 ,2,0,0.,12.0,0.,12.0,0.,12.0,0.,12.0
1979-07-05 10:09:42.240 ,1,0,0.,12.0,0.,12.0,0.,12.0,0.,12.0
1979-07-05 10:09:54.240 ,1,0,0.,12.0,0.,12.0,0.,12.0,0.,12.0
1979-07-05 10:10:06.240 ,1,0,0.,12.0,0.,12.0,0.,12.0,0.,12.0
1979-07-05 10:10:18.240 ,1,0,0.,12.0,0.,12.0,0.,12.0,0.,12.0
1979-07-05 10:10:30.240 ,0,0,0.,12.0,0.,12.0,0.,12.0,0.,12.0
1979-07-05 10:10:42.240 ,0,0,0.,12.0,0.,12.0,0.,12.0,0.,12.0
1979-07-05 10:10:54.240 ,0,0,0.,12.0,0.,12.0,0.,12.0,0.,12.0
1979-07-05 10:11:06.240 ,0,0,0.,12.0,0.,12.0,0.,12.0,0.,12.0
1979-07-05 10:11:18.240 ,0,0,0.,12.0,0.,12.0,0.,12.0,0.,12.0
1979-07-05 10:11:30.240 ,0,0,0.,12.0,0.,12.0,0.,12.0,0.,12.0
1979-07-05 10:11:42.240 ,0,0,0.,12.0,0.,12.0,0.,12.0,0.,12.0
1979-07-05 10:11:54.240 ,0,0,0.,12.0,0.,12.0,0.,12.0,0.,12.0
1979-07-05 10:12:06.240 ,1,0,0.,12.0,0.,12.0,0.,12.0,0.,12.0
1979-07-05 10:12:18.240 ,1,0,0.,12.0,0.,12.0,0.,12.0,0.,12.0
1979-07-05 10:12:30.240 ,1,0,0.,12.0,0.,12.0,0.,12.0,0.,12.0
1979-07-05 10:12:42.240 ,1,0,0.,12.0,0.,12.0,0.,12.0,0.,12.0
1979-07-05 10:12:54.240 ,2,0,0.,12.0,0.,12.0,0.,12.0,0.,12.0
1979-07-05 10:13:06.240 ,2,0,0.,12.0,0.,12.0,0.,12.0,0.,12.0
1979-07-05 10:13:18.240 ,2,0,0.,12.0,0.,12.0,0.,12.0,0.,12.0
1979-07-05 10:13:30.240 ,2,0,0.,12.0,0.,12.0,0.,12.0,0.,12.0
1979-07-05 10:13:42.240 ,3,0,0.,12.0,0.,12.0,0.,12.0,0.,12.0
1979-07-05 10:13:54.240 ,3,0,0.,12.0,0.,12.0,0.,12.0,0.,12.0
1979-07-05 10:14:06.240 ,3,0,0.,12.0,0.,12.0,0.,12.0,0.,12.0
1979-07-05 10:14:18.240 ,3,0,0.,12.0,0.,12.0,0.,12.0,0.,12.0
1979-07-05 10:14:30.240 ,4,0,0.,12.0,0.,12.0,0.,12.0,0.,12.0
1979-07-05 10:14:42.240 ,4,0,0.,12.0,0.,12.0,0.,12.0,0.,12.0
1979-07-05 10:14:54.240 ,4,0,0.,12.0,0.,12.0,0.,12.0,0.,12.0
1979-07-05 10:15:06.240 ,4,0,0.,12.0,0.,12.0,0.,12.0,0.,12.0
1979-07-05 10:15:18.240 ,5,0,0.,12.0,0.,12.0,0.,12.0,0.,12.0
1979-07-05 10:15:30.240 ,5,0,0.,12.0,0.,12.0,0.,12.0,0.,12.0
1979-07-05 10:15:42.240 ,5,0,0.,12.0,0.,12.0,0.,12.0,0.,12.0
1979-07-05 10:15:54.240 ,5,0,0.,12.0,0.,12.0,0.,12.0,0.,12.0
1979-07-05 10:16:06.240 ,6,0,0.,12.0,0.,12.0,0.,12.0,0.,12.0
1979-07-05 10:16:18.240 ,6,0,0.,12.0,0.,12.0,0.,12.0,0.,12.0
1979-07-05 10:16:30.240 ,6,0,0.,12.0,0.,12.0,0.,12.0,0.,12.0
1979-07-05 10:16:42.240 ,6,0,0.,12.0,0.,12.0,0.,12.0,0.,12.0
1979-07-05 10:16:54.240 ,7,0,0.,12.0,0.,12.0,0.,12.0,0.,12.0
1979-07-05 10:17:06.240 ,7,0,0.,12.0,0.,12.0,0.,12.0,0.,12.0
1979-07-05 10:17:18.240 ,7,0,0.,12.0,0.,12.0,0.,12.0,0.,12.0
1979-07-05 10:17:30.240 ,7,0,0.,12.0,0.,12.0,0.,12.0,0.,12.0